Yakima, WA

12:20 PM PST on February 08, 2016 (GMT -0800)
Yakima Air Term-McAllister

Weather History for KYKM - December, 2012

Change the Weather History Date:

Saturday, December 29, 2012

  Actual Average Record
Temperature  
Mean Temperature 29 °F 28 °F  
Max Temperature 32 °F 35 °F 59 °F (1998)
Min Temperature 25 °F 21 °F -16 °F (1990)
Degree Days  
Heating Degree Days 36 37  
Month to date heating degree days 896 1054  
Since 1 July heating degree days 2134 2587  
Cooling Degree Days 0 0  
Month to date cooling degree days 0 0  
Year to date cooling degree days 667 472  
Moisture  
Dew Point 26 °F    
Average Humidity 82    
Maximum Humidity 92    
Minimum Humidity 72    
Precipitation  
Precipitation 0.09 in 0.04 in 1.26 in (1996)
Month to date precipitation 2.13 1.44  
Year to date precipitation 9.32 8.16  
Snow  
Snow 1.50 in 0.30 in 12.00 in (1996)
Month to date snowfall 13.5 8.9  
Year to date snowfall 35.7 21.1  
Since 1 July snowfall 14.2 12.5  
Snow Depth 6.00 in    
Sea Level Pressure  
Sea Level Pressure 30.20 in    
Wind  
Wind Speed 2 mph (West)    
Max Wind Speed 8 mph    
Max Gust Speed 8 mph    
Visibility 6 miles    
Events Snow    
T = Trace of Precipitation, MM = Missing Value Source: NWS Daily Summary

Daily Weather History Graph

Daily Weather History Graph

Search for Another Location

Airport or City:

Trip Planner

Search our weather history database for the weather conditions in past years. The results will help you decide how hot, cold, wet, or windy it might be!

Date:

Astronomy

Dec. 29, 2012 Rise Set
Actual Time 7:46 AM PST 4:23 PM PST
Civil Twilight 7:11 AM PST 4:58 PM PST
Nautical Twilight 6:32 AM PST 5:36 PM PST
Astronomical Twilight 5:56 AM PST 6:13 PM PST
Moon 6:07 PM PST (12/29) 8:16 AM PST (12/29)
Length of Visible Light 9h 46m
Length of Day
8h 36m
Full, 98% of the Moon is Illuminated
Dec 29
Full
Jan 4
Last Quarter
Jan 11
New
Jan 18
First Quarter
Jan 26
Full

Hourly Weather History & Observations

Time (PST) Temp. Windchill Dew Point Humidity Pressure Visibility Wind Dir Wind Speed Gust Speed Precip Events Conditions
12:17 AM 30.2 °F - 26.6 °F 86% 30.23 in 8.0 mi Calm Calm - N/A   Overcast
12:53 AM 30.0 °F 26.5 °F 27.0 °F 88% 30.28 in 9.0 mi West 3.5 mph - N/A   Overcast
1:53 AM 30.0 °F - 27.0 °F 88% 30.28 in 8.0 mi Calm Calm - N/A   Overcast
2:53 AM 30.0 °F - 27.0 °F 88% 30.28 in 9.0 mi Calm Calm - N/A   Overcast
3:53 AM 30.2 °F - 26.6 °F 86% 30.23 in 9.0 mi Calm Calm - N/A   Overcast
4:53 AM 30.0 °F - 27.0 °F 88% 30.27 in 7.0 mi Calm Calm - N/A   Overcast
5:53 AM 30.0 °F 26.5 °F 25.0 °F 82% 30.27 in 10.0 mi WSW 3.5 mph - N/A   Overcast
6:53 AM 30.0 °F 26.5 °F 24.1 °F 79% 30.27 in 10.0 mi WSW 3.5 mph - 0.00 in   Overcast
7:53 AM 28.9 °F 25.2 °F 25.0 °F 85% 30.27 in 10.0 mi West 3.5 mph - 0.00 in   Overcast
8:53 AM 28.9 °F - 24.1 °F 82% 30.27 in 10.0 mi Calm Calm - N/A   Overcast
9:53 AM 30.0 °F - 24.1 °F 79% 30.26 in 10.0 mi Calm Calm - N/A   Overcast
10:53 AM 30.9 °F 27.5 °F 25.0 °F 79% 30.25 in 10.0 mi WNW 3.5 mph - N/A   Overcast
11:53 AM 32.0 °F - 25.0 °F 75% 30.22 in 4.0 mi Calm Calm - N/A   Haze
12:06 PM 32.0 °F 28.7 °F 26.6 °F 80% 30.18 in 1.8 mi West 3.5 mph - 0.00 in Snow Light Snow
12:43 PM 32.0 °F - 26.6 °F 80% 30.16 in 2.5 mi Calm Calm - 0.00 in Snow Light Snow
12:53 PM 32.0 °F - 26.1 °F 79% 30.19 in 2.5 mi Calm Calm - 0.00 in Snow Light Snow
1:05 PM 32.0 °F - 26.6 °F 80% 30.15 in 2.5 mi Calm Calm - 0.00 in Snow Light Snow
1:22 PM 32.0 °F - 26.6 °F 80% 30.15 in 3.0 mi Calm Calm - 0.00 in Snow Light Snow
1:38 PM 32.0 °F - 26.6 °F 80% 30.14 in 2.0 mi Calm Calm - 0.00 in Snow Light Snow
1:45 PM 32.0 °F - 26.6 °F 80% 30.14 in 1.5 mi Calm Calm - 0.00 in Snow Light Snow
1:53 PM 32.0 °F - 27.0 °F 82% 30.17 in 1.8 mi Calm Calm - 0.01 in Snow Light Snow
2:08 PM 32.0 °F - 26.6 °F 80% 30.13 in 2.0 mi Calm Calm - 0.00 in Snow Light Snow
2:23 PM 32.0 °F - 26.6 °F 80% 30.13 in 3.0 mi Calm Calm - 0.00 in Snow Light Snow
2:41 PM 32.0 °F - 26.6 °F 80% 30.13 in 10.0 mi Calm Calm - 0.00 in   Overcast
2:50 PM 32.0 °F - 26.6 °F 80% 30.13 in 10.0 mi Calm Calm - 0.00 in   Overcast
2:53 PM 32.0 °F - 26.6 °F 80% 30.13 in 10.0 mi Calm Calm - N/A   Overcast
3:12 PM 32.0 °F - 26.6 °F 80% 30.13 in 7.0 mi Calm Calm - N/A   Overcast
3:14 PM 32.0 °F - 26.6 °F 80% 30.13 in 7.0 mi Calm Calm - N/A   Overcast
3:53 PM 30.9 °F - 27.0 °F 85% 30.17 in 3.0 mi Calm Calm - 0.00 in Snow Light Snow
4:09 PM 30.2 °F - 26.6 °F 86% 30.14 in 2.0 mi Calm Calm - 0.00 in Snow Light Snow
4:18 PM 30.2 °F - 26.6 °F 86% 30.14 in 1.8 mi Calm Calm - 0.00 in Snow Light Snow
4:28 PM 30.2 °F - 26.6 °F 86% 30.14 in 1.2 mi Calm Calm - 0.00 in Snow Light Snow
4:53 PM 30.0 °F - 27.0 °F 88% 30.19 in 1.0 mi Calm Calm - 0.01 in Snow Light Snow
4:55 PM 30.2 °F - 26.6 °F 86% 30.14 in 0.8 mi Calm Calm - 0.00 in Snow Light Snow
5:07 PM 30.2 °F - 26.6 °F 86% 30.15 in 0.8 mi Calm Calm - 0.01 in Snow Light Snow
5:18 PM 30.2 °F 26.7 °F 26.6 °F 86% 30.15 in 1.0 mi WNW 3.5 mph - 0.02 in Snow Light Snow
5:30 PM 30.2 °F - 26.6 °F 86% 30.15 in 0.8 mi Calm Calm - 0.03 in Snow Light Snow
5:41 PM 30.2 °F 26.7 °F 26.6 °F 86% 30.16 in 1.2 mi WNW 3.5 mph - 0.04 in Snow Light Snow
5:53 PM 30.0 °F 25.2 °F 27.0 °F 88% 30.20 in 1.5 mi WNW 4.6 mph - 0.04 in Snow Light Snow
6:35 PM 30.2 °F 25.4 °F 26.6 °F 86% 30.18 in 1.2 mi West 4.6 mph - 0.01 in Snow Light Snow
6:53 PM 30.0 °F 24.1 °F 27.0 °F 88% 30.22 in 1.2 mi West 5.8 mph - 0.02 in Snow Light Snow
7:13 PM 30.2 °F 26.7 °F 26.6 °F 86% 30.19 in 2.0 mi West 3.5 mph - 0.01 in Snow Light Snow
7:53 PM 28.9 °F 25.2 °F 26.1 °F 89% 30.23 in 3.0 mi WSW 3.5 mph - 0.01 in Snow Light Snow
8:53 PM 28.9 °F 22.8 °F 25.0 °F 85% 30.25 in 10.0 mi West 5.8 mph - 0.00 in   Overcast
9:45 PM 28.4 °F 20.4 °F 24.8 °F 86% 30.22 in 10.0 mi West 8.1 mph - N/A   Overcast
9:53 PM 28.0 °F 22.8 °F 25.0 °F 88% 30.26 in 10.0 mi WNW 4.6 mph - N/A   Overcast
10:39 PM 28.4 °F 21.2 °F 24.8 °F 86% 30.23 in 9.0 mi WNW 6.9 mph - N/A   Overcast
10:53 PM 27.0 °F - 24.1 °F 89% 30.28 in 8.0 mi Calm Calm - N/A   Overcast
11:53 PM 27.0 °F 21.6 °F 23.0 °F 85% 30.29 in 10.0 mi West 4.6 mph - N/A   Overcast